This is the latest recevied weather packets stored in our database for station/object N2XP-3. If no packets are shown the sender has not sent any weather packets the latest 10 day(s).
| Time | Temp. | Humidity | Pressure | Rain* | Wind** | Luminosity | Snow |
|---|---|---|---|---|---|---|---|
| 1777918493 | 22.78° C | 37% | 1007.9 hPa | 0 mm | 1.79 m/s, 255° | - | - |
| 1777918193 | 22.78° C | 36% | 1008.2 hPa | 0 mm | 1.79 m/s, 246° | - | - |
| 1777917932 | 22.78° C | 36% | 1008.2 hPa | 0 mm | 1.79 m/s, 174° | - | - |
| 1777917890 | 22.78° C | 36% | 1008.2 hPa | 0 mm | 1.79 m/s, 174° | - | - |
| 1777917328 | 22.78° C | 36% | 1008.3 hPa | 0 mm | 2.68 m/s, 224° | - | - |
| 1777917291 | 22.78° C | 36% | 1008.3 hPa | 0 mm | 2.68 m/s, 224° | - | - |
| 1777916989 | 22.78° C | 36% | 1008.2 hPa | 0 mm | 3.13 m/s, 194° | - | - |
| 1777916137 | 22.78° C | 37% | 1008.4 hPa | 0 mm | 2.24 m/s, 210° | - | - |
| 1777916086 | 22.78° C | 37% | 1008.4 hPa | 0 mm | 2.24 m/s, 210° | - | - |
| 1777915861 | 22.78° C | 37% | 1008.4 hPa | 0 mm | 2.24 m/s, 190° | - | - |
| 1777915828 | 22.78° C | 37% | 1008.4 hPa | 0 mm | 2.24 m/s, 190° | - | - |
| 1777915787 | 22.78° C | 37% | 1008.4 hPa | 0 mm | 2.24 m/s, 190° | - | - |
| 1777915180 | 22.78° C | 36% | 1008.8 hPa | 0 mm | 2.68 m/s, 352° | - | - |
| 1777914881 | 22.22° C | 37% | 1008.7 hPa | 0 mm | 1.79 m/s, 316° | - | - |
| 1777914627 | 22.22° C | 36% | 1008.8 hPa | 0 mm | 3.13 m/s, 23° | - | - |
| 1777914581 | 22.22° C | 36% | 1008.8 hPa | 0 mm | 3.13 m/s, 23° | - | - |
| 1777914279 | 22.78° C | 37% | 1008.8 hPa | 0 mm | 4.47 m/s, 221° | - | - |
| 1777913680 | 22.78° C | 38% | 1009.1 hPa | 0 mm | 2.68 m/s, 208° | - | - |
| 1777913121 | 22.22° C | 37% | 1009.3 hPa | 0 mm | 2.24 m/s, 184° | - | - |
| 1777913074 | 22.22° C | 37% | 1009.3 hPa | 0 mm | 2.24 m/s, 184° | - | - |
| 1777912836 | 22.22° C | 38% | 1009.3 hPa | 0 mm | 1.34 m/s, 195° | - | - |
| 1777912775 | 22.22° C | 38% | 1009.3 hPa | 0 mm | 1.34 m/s, 195° | - | - |
| 1777912505 | 22.22° C | 37% | 1009.3 hPa | 0 mm | 3.13 m/s, 190° | - | - |
| 1777912472 | 22.22° C | 37% | 1009.3 hPa | 0 mm | 3.13 m/s, 190° | - | - |
| 1777912239 | 22.22° C | 38% | 1009.5 hPa | 0 mm | 3.13 m/s, 235° | - | - |
* Rain latest hour (hover to see other rain measurements)
** Current wind speed in m/s (hover to see current wind gust speed)